• Join FlightAware (Why Join?)
  • Login
  • US Flag 
12:03AM EDT


 

Airport Tracker/Info


-or-


 

Live Flight TrackerFlight Track Log ✈ DAL3865 ✈ 03-May-2013 ✈ KPIT - KDTW

Flight Track Log - Related Links

Times and Time Zones

All times are in EDT time to prevent confusion due to time zone crossing. See the DAL3865 flight status page for this flight to view local times or setup timezone preferences in your user account.

Time Position Orientation Groundspeed Altitude Reporting Facility
EDT Latitude Longitude Course Direction KTS MPH feet Rate Location/Type
03:30PM 40.4897 -80.1928 291° West 155 178 2,500  Level Cleveland Center
03:31PM 40.4936 -80.1244 86° East 197 227 4,600 1,800 Climbing Cleveland Center
03:32PM 40.5497 -80.1075 13° North 245 282 6,100 2,340 Climbing Cleveland Center
03:33PM 40.5794 -80.2058 292° West 171 197 9,400 2,400 Climbing Cleveland Center
03:34PM 40.5612 -80.6221 285° West  Level FlightAware Approximate
03:34PM 40.5922 -80.3206 278° West 214 246 10,900  Level Cleveland Center
03:35PM 40.5813 -80.7233 285° West  Level FlightAware Approximate
03:35PM 40.6111 -80.4572 280° West 333 383 12,200  Level Cleveland Center
03:36PM 40.6072 -80.8168 291° West  Level FlightAware Approximate
03:36PM 40.6300 -80.5967 280° West 388 447 14,500  Level Cleveland Center
03:37PM 40.6528 -80.7419 282° West 388 447 15,900 720 Climbing Cleveland Center
03:38PM 40.6714 -80.8897 279° West 396 456 16,000  Climbing Cleveland Center
03:39PM 40.6917 -81.0458 280° West 422 486 15,900  Descending Cleveland Center
03:40PM 40.7117 -81.2075 279° West 443 510 16,000  Climbing Cleveland Center
03:41PM 40.7317 -81.3614 280° West 438 504 16,000  Level Cleveland Center
03:42PM 40.7931 -81.4936 302° West 420 483 16,000  Level Cleveland Center
03:43PM 40.8839 -81.6019 318° Northwest 427 491 16,000  Level Cleveland Center
03:44PM 40.9747 -81.7078 319° Northwest 443 510 16,000  Level Cleveland Center
03:45PM 41.0569 -81.8058 318° Northwest 443 510 16,000  Level Cleveland Center
03:46PM 41.1581 -81.9178 320° Northwest 438 504 16,000  Level Cleveland Center
03:47PM 41.2503 -82.0275 318° Northwest 438 504 16,000  Level Cleveland Center
03:48PM 41.3386 -82.1400 316° Northwest 438 504 16,000  Level Cleveland Center
03:49PM 41.4181 -82.2639 311° West 438 504 16,000  Level Cleveland Center
03:50PM 41.4914 -82.3878 308° West 438 504 16,000  Level Cleveland Center
03:51PM 41.5564 -82.4950 309° West 438 504 16,000 -420 Level Cleveland Center
03:52PM 41.5928 -82.5544 309° West 437 503 15,500 -1,680 Descending Cleveland Center
03:52PM 41.6414 -82.6364 308° West 432 497 14,100 -1,980 Descending Cleveland Center
03:53PM 41.6636 -82.6761 307° West 416 479 13,500 -1,740 Descending Cleveland Center
03:53PM 41.7039 -82.7442 308° West 420 483 12,400 -1,380 Descending Cleveland Center
03:54PM 41.7364 -82.7925 312° West 403 464 12,100 -420 Descending Cleveland Center
03:54PM 41.7833 -82.8500 318° Northwest 409 471 12,000 -120 Descending Cleveland Center
03:55PM 41.8239 -82.8986 318° Northwest 419 482 12,000  Level Cleveland Center
03:55PM 41.8708 -82.9561 318° Northwest 409 471 12,000  Level Cleveland Center
03:56PM 41.9156 -83.0081 319° Northwest 423 487 12,000  Level Cleveland Center
03:56PM 41.9561 -83.0597 317° Northwest 415 478 12,000  Level Cleveland Center
03:57PM 41.9886 -83.0975 319° Northwest 409 471 12,000  Level Cleveland Center
03:57PM 42.0414 -83.1611 318° Northwest 415 478 12,000  Level Cleveland Center
03:58PM 42.0761 -83.2017 319° Northwest 396 456 12,000  Level Cleveland Center
03:58PM 42.1231 -83.2344 333° Northwest 386 444 12,000 -1,080 Level Cleveland Center
04:00PM 42.2239 -83.2078 11° North 257 296 9,900 -1,380 Descending Cleveland Center
04:00PM 42.2597 -83.1839 26° Northeast 250 288 9,300 -1,320 Descending Cleveland Center
04:01PM 42.2872 -83.1711 19° North 221 254 8,600 -1,680 Descending Cleveland Center
04:02PM 42.3422 -83.1339 27° Northeast 221 254 7,100 -1,320 Descending Cleveland Center
04:03PM 42.3897 -83.1611 337° Northwest 203 234 6,000 -1,200 Descending Cleveland Center
04:04PM 42.3842 -83.2200 263° West 177 204 4,800 -1,440 Descending Cleveland Center
04:05PM 42.3375 -83.2489 205° Southwest 183 211 3,300 -1,500 Descending Cleveland Center